DW7322 Weather Reports


time (UTC)temp
F
wind
direction
speed
knots
gust
knots
rain 1hr
in
rain 24hr
in
rain mn
in
humidity
%
barometer
mb
20260504100117 45 219 0.0 1.7 0.00 0.10 0.00 86 1004.8
20260504090113 46 226 0.0 0.0 0.00 0.10 0.00 84 1004.8
20260504081544 47 227 0.0 0.0 0.00 0.10 0.00 85 1004.8
20260504080106 47 227 0.0 0.0 0.00 0.10 0.00 84 1004.6
20260504050014 50 227 0.0 0.0 0.00 0.10 0.10 83 1006.7
20260504044540 51 227 0.0 0.0 0.00 0.10 0.10 81 1006.7
20260504043055 52 226 0.0 0.0 0.00 0.10 0.10 80 1006.7
20260504041519 52 227 0.0 0.0 0.00 0.10 0.10 78 1006.6
20260504040100 53 227 0.0 0.0 0.00 0.10 0.10 77 1006.6
20260504034551 54 226 0.0 0.0 0.00 0.10 0.10 77 1006.5
20260504033128 54 227 0.0 0.0 0.00 0.10 0.10 77 1006.7
20260504031520 54 227 0.0 0.9 0.00 0.10 0.10 75 1006.7
20260504030050 54 227 0.0 0.0 0.00 0.10 0.10 75 1006.8
20260504024544 56 227 0.0 0.0 0.00 0.10 0.10 73 1006.7
20260504023008 56 227 0.0 0.9 0.00 0.10 0.10 72 1006.7
20260504021528 57 227 0.0 0.9 0.00 0.10 0.10 70 1006.6
20260504020100 58 227 0.0 0.9 0.00 0.10 0.10 69 1006.6
20260504014548 59 227 0.0 0.9 0.00 0.10 0.10 67 1006.4
20260504013002 60 227 0.0 0.9 0.00 0.10 0.10 66 1006.3
20260504011526 60 224 0.0 0.9 0.00 0.10 0.10 65 1006.2
20260504010021 60 264 0.0 0.9 0.00 0.10 0.10 65 1006.2
20260504004556 62 264 0.0 0.0 0.00 0.10 0.10 63 1006.2
20260504003056 63 264 0.0 0.9 0.00 0.10 0.10 59 1006.1
20260504001524 64 264 0.0 0.9 0.00 0.10 0.10 57 1006.1
20260504000014 65 265 0.0 0.0 0.00 0.10 0.10 57 1006.3
20260503234543 66 264 0.0 0.9 0.00 0.10 0.10 54 1006.1
20260503233059 67 252 0.0 0.9 0.00 0.10 0.10 53 1006.3
20260503233004 67 252 0.0 0.9 0.00 0.10 0.10 52 1006.3
20260503231523 68 252 0.0 2.6 0.00 0.10 0.10 51 1006.3
20260503230057 69 278 0.0 3.5 0.00 0.10 0.10 50 1006.4
20260503224540 70 249 0.0 1.7 0.00 0.10 0.10 48 1006.5
20260503223059 70 248 0.9 3.5 0.00 0.10 0.10 48 1006.6
20260503223006 70 216 0.9 3.5 0.00 0.10 0.10 47 1006.6
20260503221521 70 315 0.0 4.3 0.00 0.10 0.10 48 1006.7
20260503220041 70 273 0.9 4.3 0.00 0.10 0.10 48 1006.8
20260503214528 68 234 0.9 4.3 0.00 0.10 0.10 51 1006.9
20260503213058 68 245 2.6 7.8 0.00 0.10 0.10 47 1006.9
20260503211507 69 229 4.3 13.0 0.00 0.10 0.10 45 1007.2
20260503210002 68 234 1.7 6.1 0.00 0.10 0.10 49 1007.5
20260503204523 67 218 3.5 7.0 0.00 0.10 0.10 50 1007.9
20260503203040 66 257 3.5 7.0 0.00 0.10 0.10 47 1008.2
20260503201506 66 216 2.6 5.2 0.00 0.10 0.10 50 1008.6
20260503200002 66 212 2.6 7.0 0.00 0.10 0.10 49 1008.9
20260503194525 67 246 3.5 7.0 0.00 0.10 0.10 49 1009.0
20260503193045 66 213 3.5 12.2 0.00 0.10 0.10 49 1009.2
20260503191603 65 222 2.6 8.7 0.00 0.10 0.10 58 1009.4
20260503190111 63 191 2.6 10.4 0.00 0.10 0.10 60 1009.6
20260503184559 61 192 1.7 8.7 0.00 0.10 0.10 64 1009.7
20260503183016 60 125 3.5 11.3 0.00 0.10 0.10 67 1010.0
20260503181528 58 216 3.5 10.4 0.00 0.10 0.10 69 1010.3
20260503180049 56 202 3.5 8.7 0.00 0.10 0.10 71 1010.7
20260503174541 55 188 2.6 7.8 0.00 0.10 0.10 73 1011.2
20260503173117 53 354 3.5 7.0 0.01 0.10 0.10 79 1011.3
20260503171518 50 222 1.7 7.8 0.02 0.10 0.10 86 1011.9
20260503160118 48 204 0.0 8.7 0.03 0.06 0.07 87 1014.2
20260503150120 49 241 0.0 2.6 0.03 0.03 0.03 83 1014.9
20260503140109 50 224 0.0 1.7 0.00 0.00 0.00 74 1014.5